This is the latest recevied weather packets stored in our database for station/object W8RD. If no packets are shown the sender has not sent any weather packets the latest 10 day(s).
| Time | Temp. | Humidity | Pressure | Rain* | Wind** | Luminosity | Snow |
|---|---|---|---|---|---|---|---|
| 1777514598 | 23.89° C | 87% | 1014.9 hPa | 0 mm | - | 0 W/m² | - |
| 1777513997 | 23.89° C | 87% | 1015 hPa | 0 mm | - | 0 W/m² | - |
| 1777513398 | 23.89° C | 88% | 1014.8 hPa | 0 mm | - | 0 W/m² | - |
| 1777512795 | 24.44° C | 87% | 1014.6 hPa | 0 mm | - | 0 W/m² | - |
| 1777512195 | 24.44° C | 88% | 1014.7 hPa | 0 mm | - | 0 W/m² | - |
| 1777511590 | 24.44° C | 87% | 1014.7 hPa | 0 mm | - | 0 W/m² | - |
| 1777510989 | 24.44° C | 87% | 1014.7 hPa | 0 mm | - | 0 W/m² | - |
| 1777510388 | 24.44° C | 87% | 1014.6 hPa | 0 mm | - | 0 W/m² | - |
| 1777509788 | 24.44° C | 87% | 1014.3 hPa | 0 mm | - | 0 W/m² | - |
| 1777509186 | 24.44° C | 87% | 1014.1 hPa | 0 mm | - | 0 W/m² | - |
| 1777508586 | 24.44° C | 87% | 1014 hPa | 0 mm | - | 0 W/m² | - |
| 1777507980 | 24.44° C | 87% | 1013.8 hPa | 0 mm | - | 0 W/m² | - |
| 1777507380 | 24.44° C | 86% | 1013.8 hPa | 0 mm | - | 2 W/m² | - |
| 1777506775 | 25° C | 86% | 1013.8 hPa | 0 mm | - | 7 W/m² | - |
| 1777506172 | 25° C | 85% | 1013.9 hPa | 0 mm | - | 13 W/m² | - |
| 1777505571 | 25° C | 84% | 1013.8 hPa | 0 mm | - | 18 W/m² | - |
| 1777504971 | 25.56° C | 82% | 1014 hPa | 0 mm | - | 25 W/m² | - |
| 1777504370 | 25.56° C | 81% | 1013.8 hPa | 0 mm | - | 35 W/m² | - |
| 1777503766 | 25.56° C | 81% | 1013.8 hPa | 0 mm | - | 33 W/m² | - |
| 1777503164 | 25.56° C | 81% | 1013.9 hPa | 0 mm | - | 39 W/m² | - |
| 1777502560 | 25.56° C | 81% | 1014.1 hPa | 0 mm | - | 60 W/m² | - |
| 1777501960 | 26.11° C | 79% | 1014 hPa | 0 mm | - | 56 W/m² | - |
| 1777501359 | 26.11° C | 80% | 1014 hPa | 0 mm | - | 91 W/m² | - |
| 1777500755 | 26.11° C | 80% | 1013.8 hPa | 0 mm | - | 60 W/m² | - |
| 1777500153 | 26.11° C | 79% | 1013.7 hPa | 0 mm | - | 88 W/m² | - |
* Rain latest hour (hover to see other rain measurements)
** Current wind speed in m/s (hover to see current wind gust speed)